Location: Acorn Hill
(36.4429°N, 76.5469°W)
Time: 15:44:26
(UTC+00:00)

N. Korean satellite - Pass Details

Date: 27 July 2021
Orbit: 448 x 499 km, 97.3° (Epoch: 16 September)

Event Time Altitude Azimuth Distance (km) Brightness Sun altitude
Rises 09:26:20 0° 33° (NNE) 2,562 11.5 -8.4°
Reaches altitude 10° 09:29:12 10° 58° (ENE) 1,664 11.1 -7.9°
Maximum altitude 09:31:14 15° 93° (E) 1,391 9.8 -7.5°
Drops below altitude 10° 09:33:16 10° 128° (SE) 1,638 9.5 -7.2°
Sets 09:36:02 0° 154° (SSE) 2,497 10.1 -6.7°
